Tracking 25723 objects as of 26-Jun-2022
HD Live streaming from Space Station
objects crossing your sky now

DMSP 5D-2 F13 DEB

Track DMSP 5D-2 F13 DEB now!
10-day predictions


NORAD ID: 40681
Int'l Code: 1995-015FV
Perigee: 826.8 km
Apogee: 832.7 km
Inclination: 98.8 °
Period: 101.4 minutes
Semi major axis: 7200 km
RCS: Unknown
Launch date: March 24, 1995
Source: United States (US)
Launch site: AIR FORCE WESTERN TEST RANGE (AFWTR)

Note: This is SATELLITE DEBRIS
aabbcc
Your satellite tracking list
Your tracking list is empty




NASA's NSSDC Master Catalog

Two Line Element Set (TLE):
1 40681U 95015FV  22176.97861472  .00001609  00000-0  76530-3 0  9991
2 40681  98.7815 188.4837 0004054  17.7817 342.3501 14.20810816373396
Source of the keplerian elements: AFSPC